Flag Weather past 2 weeks in Martigny, Valais, Switzerland

Now
43 °F

Quite cool.


Feels Like: 39 °F
Forecast: 46 / 59 °F
Wind: 6 mph from East

Location: Sion

Current Time: Nov 27, 2014 at 6:38:48 AM

Latest Report: Nov 27, 2014 at 6:00 AM


Visibility: N/A

Pressure: 29.84 "Hg

Humidity: 85%

Dew point: 39 °F

Location of MartignyLocation

Historic Weather in Martigny — Graph

°F

Martigny temperature yesterday

Maximum temperature yesterday: 53 °F (at 1:00 PM)
Minimum temperature yesterday: 45 °F (at 8:00 AM)
Average temperature yesterday: 48 °F

Past Weeks' High & Low Weather Summary

 TemperatureHumidityPressure
High59 °F (Nov 14, 2:00 PM)100% (Nov 16, 1:00 AM)30.36 "Hg (Nov 16, 1:00 AM)
Low34 °F (Nov 19, 6:00 AM)38% (Nov 20, 3:00 PM)29.58 "Hg (Nov 15, 4:00 PM)
Average46 °F83%29.99 "Hg
* Reported Nov 12 5:00 AM — Nov 27 5:00 AM, Martigny, Weather by CustomWeather, © 2014

Note: Actual official high and low records may vary slightly from our data, if they occured in-between our weather recording intervals... More about our weather records

Advertising

Martigny weather history for previous 24 hours

 ConditionsComfort  
Time TempWeatherWind HumidityBarometerVisibility
5:00 AM
Nov 27
44 °FQuite cool.6 mph82%29.85 "HgN/A
4:00 AM43 °FPassing clouds.8 mph86%29.87 "Hg9 mi
3:00 AM43 °FQuite cool.8 mph90%29.88 "HgN/A
2:00 AM44 °FQuite cool.8 mph90%29.89 "HgN/A
1:00 AM44 °FPassing clouds.3 mph91%29.91 "Hg9 mi
12:00 AM44 °FQuite cool.6 mph92%29.92 "HgN/A
11:00 PM
Nov 26
45 °FCool.6 mph91%29.93 "HgN/A
10:00 PM48 °FOvercast.5 mph87%29.92 "Hg12 mi
9:00 PM47 °FCool.1 mph94%29.93 "HgN/A
8:00 PM48 °FCool.1 mph91%29.93 "HgN/A
7:00 PM50 °FOvercast.No wind86%29.93 "Hg12 mi
6:00 PM50 °FCool.1 mph87%29.92 "HgN/A
5:00 PM51 °FCool.2 mph82%29.91 "HgN/A
4:00 PM53 °FOvercast.6 mph77%29.90 "Hg12 mi
3:00 PM53 °FCool.2 mph76%29.90 "HgN/A
2:00 PM53 °FCool.2 mph75%29.91 "HgN/A
1:00 PM53 °FPartly sunny.5 mph74%29.93 "Hg12 mi
12:00 PM52 °FCool.3 mph78%29.96 "HgN/A
11:00 AM50 °FCool.2 mph85%29.99 "HgN/A
10:00 AM47 °FOvercast.1 mph90%30.01 "Hg12 mi
9:00 AM46 °FCool.2 mph92%30.01 "HgN/A
8:00 AM45 °FQuite cool.1 mph95%30.02 "HgN/A
7:00 AM45 °FLow clouds.No wind97%30.03 "Hg9 mi
6:00 AM46 °FCool.No wind96%30.03 "HgN/A
Weather by CustomWeather, © 2014

See weather overviewHow to use our weather pages